COSMOS 2092

Satellite information

Favourite Embed

Satellite Type and Status

PAYLOADIN ORBIT

Key statistics

Satellite COSMOS 2092 at a glance.

Uptime

12753

Days in orbit

Revolutions

≈ 12.6

Per day

Orbit

LEO

Low Earth Orbit

Inclination

82.6

Latest

Satellite identification and parameters

Extended collection of information and parameters for COSMOS 2092.

Object identification

Identified? True

Debris? False

Object name: COSMOS 2092

International designator: 1990-070C

Object number (NORAD): 20737

Object ID (CCSDS): 20737

Country: COMMONWEALTH OF INDEPENDENT STATES (CIS)

Current information (Y/N): Y

RCS size: LARGE

Orbital parameters

Period: 113.984 minutes

Inclination: 82.5687 deg

SMA: 7787.334 km

Apoapsis: 1412.37 km

Periapsis: 1406.027 km

RAAN: 166.2054 deg

Eccentricy: 0.0004073

Argument of periapsis: 174.628 deg

Mean anomaly: 245.7197 deg

Mean motion: 12.63338097 rev/day

Mean motion (dot): 0.00000025 rev/day2

B* drag term: 0.000080367 1/REarth

Two-line elements (TLE)

Creation date: July 8, 2025, 2:27 a.m.

Reference frame: TEME

Reference center: EARTH

Epoch: July 7, 2025, 9:54 p.m. UTC

TLE line 0: 0 COSMOS 2092

TLE line 1: 1 20737U 90070C 25188.91275874 .00000025 00000-0 80367-4 0 9997

TLE line 2: 2 20737 82.5687 166.2054 0004073 174.6280 245.7197 12.63338097609881

Live tracking on map

Real-time ground track for satellite COSMOS 2092.

In-orbit conjunctions

A list of the most updated potential collisions computed for object COSMOS 2092.

Target Orbit TCA Probability of collision Miss distance Type
COSMOS 2211 LEO 2024-08-22 23:59:41 0.000232995 46.0 (m) PAYLOAD

Associated space launch

Second generation store-dump military communications satellite

COSMOS 2092 was lifted into orbit during the mission ‘Tsiklon-3 | Strela-3 49 to 54’, on board a Tsiklon-3 space rocket.

The launch took place on Aug. 8, 1990, 4:15 a.m. from 32/2.

For more information about the launch, click the button.

Launch to space Tsiklon-3 | Strela-3 49 to 54
Tsiklon-3 | Strela-3 49 to 54

Agency: N/A

Status: Launch Successful

Launch date: Aug. 8, 1990, 4:15 a.m. UTC

Rocket: Tsiklon-3

Launch pad: 32/2

Location: Plesetsk Cosmodrome, Russian Federation

...

Latest news about this satellite

There are no fresh news available about this satellite. Check back as we update our databases every day.


Newsletter sign-up

Weekly statistics, charts and insights to help you stay on top of the space industry.